Tracking 25710 objects as of 5-Jul-2022
HD Live streaming from Space Station
objects crossing your sky now

FENGYUN 1C DEB

Track FENGYUN 1C DEB now!
10-day predictions


NORAD ID: 33656
Int'l Code: 1999-025DER
Perigee: 766.4 km
Apogee: 904.9 km
Inclination: 98.6 °
Period: 101.5 minutes
Semi major axis: 7206 km
RCS: 0.0162 m2 (small)
Launch date: May 10, 1999
Source: People's Republic of China (PRC)
Launch site: Taiyaun Space Center, China (TSC)

Note: This is SATELLITE DEBRIS
aabbcc
Your satellite tracking list
Your tracking list is empty




NASA's NSSDC Master Catalog

Two Line Element Set (TLE):
1 33656U 99025DER 22183.27654878  .00000241  00000-0  12902-3 0  9995
2 33656  98.5642 199.4578 0096085  80.0288 281.1716 14.19076868448266
Source of the keplerian elements: AFSPC